Location: Ambleville
(49.1484°N, 1.6962°E)
Time: 00:12:44
(UTC+00:00)

Daily predictions for brighter satellites

Satellite Brightness Start Highest point End
(mag) Time Altitude Azimuth Time Altitude Azimuth Time Altitude Azimuth
Cosmos 1980 Rocket 4.3 01:30:02 10° NNW 01:41:00 - ESE 01:32:42 22° NNE
SL-16 R/B 4.2 01:51:00 25° NNW 01:51:00 25° NNW 01:53:21 10° NNW
Resurs 1-4 Rocket 4.0 02:01:07 10° N 02:03:14 25° N 02:03:14 25° N
IDEFIX/ARIANE 42P 4.2 02:02:57 10° NNE 02:05:39 31° NNE 02:05:39 31° NNE
Cosmos 1833 Rocket 3.9 02:13:00 39° ENE 02:13:00 39° ENE 02:16:48 10° NE
CZ-2D R/B 3.8 02:16:37 10° N 02:18:59 26° N 02:18:59 26° N
CENTAUR R/B 4.1 02:27:14 22° SE 02:28:32 24° ESE 02:33:42 10° ENE
Lacrosse 4 Rocket 3.9 02:30:46 19° NNE 02:31:54 21° NE 02:35:18 10° E
Cosmos 2082 Rocket 3.3 02:38:49 36° ESE 02:39:14 37° ESE 02:44:21 10° NE
ADEOS II 3.3 02:39:27 10° N 02:42:28 34° N 02:42:28 34° N
Cosmos 1934 Rocket 4.4 02:48:44 52° NNW 02:48:44 52° NNW 02:53:40 10° N
Cosmos 1624 Rocket 4.4 02:50:31 61° NE 02:50:31 61° NE 02:55:00 10° NNE
CZ-2C R/B 3.9 02:45:30 10° NNE 02:49:54 32° E 02:51:08 28° ESE
USA 306 4.4 03:00:25 33° NE 03:00:25 33° NE 03:02:50 10° ENE
COSMOS 2406 3.3 03:01:52 68° SE 03:02:06 69° ESE 03:07:46 10° NNE
NOSS 3-2 (A) 4.3 03:01:33 33° SSE 03:02:53 38° ESE 03:08:35 10° NE
Cosmos 1371 Rocket 4.2 03:06:18 64° N 03:06:18 64° N 03:10:47 10° NNE
Cosmos 1605 Rocket 3.8 03:06:05 71° NW 03:06:05 71° NW 03:11:56 10° N
ATLAS CENTAUR R/B 2.2 03:08:06 58° NNE 03:08:06 58° NNE 03:12:03 10° NE
Cosmos 1328 Rocket 4.1 03:12:11 55° NE 03:12:11 55° NE 03:15:45 10° NNE
MSX 4.3 03:06:03 10° N 03:10:47 46° NW 03:10:47 46° NW
Cosmos 2322 Rocket 4.0 03:07:58 10° NNW 03:12:55 29° NE 03:17:50 10° ESE
Meteor 1-11 Rocket 3.7 03:10:47 10° NNW 03:16:48 81° W 03:18:13 54° S
Cosmos 1980 Rocket 3.8 03:13:40 10° NNW 03:23:06 20° SSE 03:24:48 10° SSE
USA 308 3.5 03:25:30 48° NNE 03:25:30 48° NNE 03:28:57 10° ENE
Cosmos 1850 Rocket 4.3 03:19:48 10° NNW 03:25:09 69° ENE 03:30:28 10° SSE
ATLAS 5 CENTAUR R/B 4.2 03:23:23 10° NNW 03:26:15 17° NNE 03:29:37 10° NE
Cosmos 44 Rocket 3.1 03:26:24 87° NE 03:26:24 87° NE 03:31:04 10° NE
PAYLOAD A 4.2 03:21:31 10° NNE 03:26:21 64° ESE 03:28:15 36° S
CBERS-1 3.9 03:27:50 10° NNE 03:32:59 83° WNW 03:33:56 60° SSW
Cosmos 2056 Rocket 3.7 03:35:21 49° NW 03:35:21 49° NW 03:40:07 10° NNE
Cosmos 2173 Rocket 4.0 03:33:20 17° S 03:38:06 78° E 03:44:12 10° NNE
Cosmos 1420 Rocket 4.1 03:38:26 54° WNW 03:38:36 54° WNW 03:43:43 10° NNE
Cosmos 1346 Rocket 4.0 03:40:21 31° NNW 03:40:21 31° NNW 03:42:40 10° N
Cosmos 1515 Rocket 3.7 03:37:57 45° S 03:39:16 74° E 03:43:44 10° NNE
GP-B 4.4 03:36:22 10° SSE 03:40:31 41° E 03:44:41 10° NNE
Cosmos 1461 3.2 03:42:22 53° SSE 03:42:56 59° ESE 03:47:04 10° NE
IRS-1D 3.9 03:38:01 10° N 03:43:02 44° WNW 03:43:02 44° WNW
ALOS 2.1 03:38:25 10° N 03:43:05 71° WNW 03:43:37 64° WSW
Cosmos 2278 3.5 03:37:47 10° NNW 03:43:27 79° WSW 03:49:06 10° SSE
SL-16 R/B 2.8 03:38:19 10° NNW 03:43:56 58° ENE 03:49:31 10° SE
Cosmos 1470 Rocket 4.2 03:40:34 10° NNW 03:43:30 40° NW 03:43:30 40° NW
Resurs 1-4 Rocket 4.2 03:42:49 10° NNW 03:44:18 13° NW 03:44:18 13° NW
USA 305 3.4 03:44:58 43° NNW 03:45:18 44° N 03:49:16 10° ENE
IDEFIX/ARIANE 42P 4.2 03:43:28 10° N 03:46:27 20° NW 03:46:27 20° NW
FENGYUN 3A 3.7 03:45:00 10° N 03:50:17 56° WNW 03:51:35 45° WSW
NOSS 3-3 (A) 4.5 03:43:06 10° NW 03:50:33 85° SW 03:59:06 10° SE
NOSS 3-3 (C) 4.5 03:43:11 10° NW 03:50:39 86° SW 03:59:12 10° SE
METEOR-M 4.1 03:47:08 10° NNE 03:52:32 82° ESE 03:56:56 16° SSW
IRS-P3 4.3 03:49:51 10° NNE 03:55:12 73° ESE 04:00:32 10° S
Cosmos 1833 Rocket 3.5 03:54:43 31° WNW 03:55:31 32° NW 04:00:35 10° NNE
Cosmos 1741 Rocket 3.8 03:51:39 10° NNW 03:56:52 72° WSW 04:02:03 10° SSE
RUBIN 8/PSLV 4.5 03:52:46 10° N 03:57:06 69° WNW 03:58:15 47° SW
CZ-2D R/B 4.3 03:59:24 10° NNW 04:00:17 11° NW 04:00:17 11° NW
Cosmos 2228 Rocket 4.5 03:58:41 10° SSE 04:02:50 39° E 04:06:58 10° NNE
Cosmos 2219 Rocket 4.4 03:59:33 10° NNW 04:04:08 24° NE 04:08:40 10° E
Cosmos 1331 Rocket 4.3 04:00:12 13° S 04:04:49 67° ESE 04:09:58 10° NNE
YAOGAN 6 3.3 04:02:09 10° NNE 04:05:43 54° E 04:09:14 10° S
Cosmos 1484 Rocket 2.9 04:06:56 10° NNE 04:10:55 76° ESE 04:14:52 10° S
Lacrosse 4 Rocket 1.4 04:07:07 13° NW 04:10:59 72° WSW 04:15:23 10° SSE
Lacrosse 5 rocket 4.4 04:09:56 10° SSE 04:11:58 13° ESE 04:13:59 10° E
ARIANE 5 R/B 2.4 04:07:50 10° NNE 04:12:52 84° WNW 04:17:52 10° SSW
Meteor 1-27 Rocket 4.0 04:10:33 27° SW 04:13:27 48° WNW 04:19:11 10° N
Helios 1B rocket 2.4 04:09:32 10° N 04:13:33 58° WNW 04:15:11 33° SW
CZ-2C R/B 2.5 04:09:36 10° S 04:14:48 63° WSW 04:20:11 10° NNW
Meteor 1-29 3.9 04:13:16 10° NNE 04:16:29 47° E 04:19:41 10° S
ERS-1 4.5 04:12:14 10° NNE 04:17:28 82° WNW 04:22:39 10° SSW
CENTAUR R/B 2.5 04:14:25 25° SW 04:18:14 80° NW 04:25:33 10° NE
CZ-2C R/B 3.9 04:13:07 10° NNE 04:18:47 58° E 04:24:09 10° S
Cosmos 2100 Rocket 4.1 04:15:24 16° SSW 04:20:10 52° WNW 04:26:12 10° N
Cosmos 2333 Rocket 3.7 04:15:24 10° NNW 04:20:44 38° NE 04:26:00 10° ESE
Cosmos 1110 Rocket 3.9 04:16:35 14° SSW 04:21:06 85° WNW 04:26:20 10° NNE
Cosmos 2016 Rocket 4.0 04:15:30 10° SSW 04:21:52 79° W 04:28:18 10° N
CZ-4C R/B 3.9 04:17:38 10° SSE 04:21:52 67° ENE 04:26:13 10° N
ADEOS II 4.1 04:21:36 10° NNW 04:23:14 11° NW 04:23:23 11° NW
Cosmos 2082 Rocket 2.6 04:20:41 27° WSW 04:23:15 43° NW 04:28:37 10° NNE
COSMO-SKYMED 1 4.1 04:20:24 10° SE 04:24:26 39° ENE 04:28:29 10° N
SL-08 R/B 4.4 04:18:22 10° S 04:24:28 87° W 04:30:41 10° N
Okean 1 3.5 04:23:13 26° SW 04:25:10 49° WNW 04:29:05 10° N
Cosmos 1452 Rocket 3.7 04:24:11 22° SW 04:27:31 54° WNW 04:32:43 10° NNE
Cosmos 1869 Rocket 3.4 04:23:10 10° NNW 04:27:37 74° W 04:31:58 10° S
USA 276 3.9 04:26:13 17° S 04:27:42 24° SSE 04:30:14 10° E
Cosmos 2360 Rocket 2.8 04:22:21 10° NNW 04:27:56 60° ENE 04:33:29 10° SE
CZ-2C R/B 2.9 04:23:37 10° N 04:28:10 37° WNW 04:30:30 23° WSW
Meteor 1-18 Rocket 4.2 04:23:21 10° S 04:29:02 86° ESE 04:34:40 10° NNE
USA 307 3.7 04:27:02 22° WNW 04:29:13 41° N 04:33:09 10° ENE
Envisat 3.0 04:24:11 10° NNE 04:29:18 85° ESE 04:34:23 10° SSW
ERBS 4.2 04:28:31 14° NNW 04:29:45 17° N 04:31:45 10° NE
Cosmos 968 Rocket 3.5 04:24:46 10° NNW 04:29:59 83° ENE 04:35:07 10° SSE
TIMED 4.5 04:30:22 16° SW 04:33:44 66° WNW 04:38:06 10° NNE
Orbus 7S? 4.3 04:33:42 24° W 04:35:40 48° NNW 04:42:26 10° ENE
Cosmos 489 Rocket 4.4 04:30:14 10° NNW 04:36:28 69° WSW 04:42:37 10° S
USA 306 3.7 04:35:54 18° WNW 04:38:32 41° N 04:42:27 10° ENE
H-2A R/B 2.8 04:36:36 10° NNE 04:40:17 74° ESE 04:43:57 10° S
SL-24 R/B - RUBIN 2 3.5 04:38:52 18° SW 04:42:00 66° NW 04:46:22 10° NE
Cosmos 2061 Rocket 3.9 04:36:05 10° SSW 04:42:15 67° WNW 04:48:27 10° N
PSLV R/B 3.9 04:41:10 10° NNE 04:45:30 69° ESE 04:49:45 10° S
Cosmos 1733 Rocket 3.6 04:42:11 10° N 04:46:36 64° ENE 04:50:57 10° SSE
ATLAS CENTAUR R/B 3.3 04:44:03 15° WNW 04:46:37 22° NNW 04:50:24 10° NNE
COSMOS 2406 4.3 04:43:57 18° W 04:46:56 27° NW 04:51:44 10° NNE
Cosmos 2344 4.4 04:39:47 10° NW 04:48:19 73° NE 05:00:08 10° SE
X-37B 2.7 04:49:24 12° SSW 04:49:32 12° SSW 04:50:39 10° S
CZ-2D R/B 3.7 04:45:52 10° N 04:49:38 42° WNW 04:53:27 10° SW
Meteor 2-4 Rocket 3.7 04:45:45 10° SSW 04:51:29 74° WNW 04:57:04 10° N
COSMOS 2428 4.4 04:46:48 10° NNW 04:52:00 33° NE 04:57:08 10° ESE
NOSS 3-2 (A) 3.7 04:48:58 16° WSW 04:53:30 52° NW 05:00:01 10° NE
NOSS 3-2 (C) 3.3 04:48:40 10° SW 04:54:12 80° NW 05:00:46 10° NE
Cosmos 1975 3.2 04:52:20 10° NNW 04:56:03 39° W 04:59:45 10° SSW
Cosmos 2322 Rocket 2.2 04:51:46 10° NW 04:57:23 61° WSW 05:02:55 10° SSE
SL-08 R/B 3.9 04:54:29 10° SSW 04:58:44 34° W 05:03:06 10° NNW
Cosmos 2237 4.3 04:53:37 10° NW 04:59:12 56° WSW 05:04:44 10° S
Cosmos 1242 Rocket 2.6 04:56:39 10° NNW 04:59:58 46° W 05:03:13 10° S
CZ-2C R/B 2.7 04:56:37 10° NNE 05:00:26 86° WNW 05:04:18 10° SSW
Cosmos 2233 Rocket 4.0 04:56:56 10° SSW 05:03:12 65° WNW 05:09:30 10° N
USA 308 3.7 05:01:01 11° WNW 05:04:46 42° N 05:08:42 10° ENE
Cosmos 1378 4.5 05:04:37 12° WSW 05:06:49 20° WNW 05:09:34 10° NNW
COSMOS 2455 2.8 05:00:53 10° NW 05:06:56 75° WSW 05:12:55 10° SSE
Cosmos 1805 3.1 05:05:15 10° NNW 05:09:09 75° W 05:13:00 10° S
USA 238 DEB 3.7 05:03:35 10° SW 05:10:03 74° NW 05:17:00 10° NE
USA 238 3.6 05:03:41 10° SW 05:10:09 74° NW 05:17:06 10° NE
Tsikada Rocket 4.3 05:04:35 10° NNW 05:10:27 42° W 05:16:13 10° SSW
ATLAS 5 CENTAUR R/B 3.5 05:07:23 10° NNW 05:12:04 37° NE 05:17:40 10° ESE
SKYMED 2 3.5 05:08:06 10° S 05:12:27 72° WSW 05:16:48 10° NNW
CZ-4B R/B 3.8 05:09:21 10° NNE 05:14:38 81° ESE 05:19:55 10° SSW
Aureole 1 Rocket 3.9 05:13:02 10° NNW 05:16:43 40° ENE 05:19:46 10° SE
GP-B 4.2 05:14:26 10° SW 05:17:58 23° W 05:21:31 10° NNW
ALOS 4.2 05:18:03 10° NW 05:19:37 12° NW 05:21:11 10° WNW
Cosmos 1733 3.3 05:16:27 10° NNW 05:20:05 49° W 05:23:41 10° S
SL-27 R/B 4.5 05:18:37 10° S 05:21:48 33° ESE 05:25:00 10° NE
Cosmos 1461 4.2 05:18:46 10° W 05:22:12 25° NW 05:25:46 10° NNE
USA 290 2.5 05:21:29 10° NW 05:24:35 45° WSW 05:27:39 10° S
USA 305 3.5 05:21:08 10° WNW 05:25:08 48° NNE 05:29:07 10° E
Cosmos 2322 4.2 05:21:30 10° NNW 05:27:11 68° ENE 05:32:52 10° SE
SL-16 R/B 3.1 05:23:00 10° NW 05:27:41 27° WSW 05:32:19 10° SSW
NOAA 11 4.3 05:23:51 10° N 05:29:14 57° WNW 05:34:33 10° SSW
Meteor 1-13 Rocket 4.4 05:23:43 10° S 05:29:18 83° E 05:34:51 10° NNE
Cosmos 1766 3.3 05:25:46 10° N 05:29:45 89° E 05:33:41 10° S
Cosmos 1862 Rocket 3.6 05:25:30 10° SSW 05:29:57 71° W 05:34:25 10° N
USA 234 4.0 05:25:35 10° ENE 05:32:02 57° SE 05:38:26 10° SW
